Location: Theydon Bois
(51.6750°N, 0.1050°E)
Time: 19:55:25
(UTC+01:00)

Daily predictions for brighter satellites

Satellite Brightness Start Highest point End
(mag) Time Altitude Azimuth Time Altitude Azimuth Time Altitude Azimuth
BREEZE M DEB (TANK) 4.2 21:04:44 10° WSW 21:08:42 73° SSE 21:22:23 10° E
Cosmos 2228 Rocket 4.3 21:20:31 10° SE 21:24:08 25° E 21:27:49 10° NNE
Cosmos 2315 Rocket 4.1 21:18:33 10° S 21:24:57 86° E 21:31:22 10° N
Resurs 01 Rocket 1.7 21:23:28 10° SSE 21:27:55 90° S 21:32:23 10° NNW
BREEZE M DEB (TANK) 2.4 21:23:07 10° W 21:28:39 52° SSW 21:30:59 10° ESE
SWARM A 4.4 21:25:45 10° N 21:29:02 57° E 21:32:17 10° SSE
Cosmos 2082 Rocket 2.3 21:23:35 10° NNW 21:29:16 88° ENE 21:34:54 10° SSE
USA 305 4.4 21:28:37 10° W 21:32:11 26° SW 21:35:45 10° SSE
Cosmos 1328 Rocket 3.7 21:27:48 10° SSW 21:32:13 82° W 21:36:39 10° N
SPOT 1/Viking Rocket 3.7 21:28:50 10° SSE 21:33:56 62° ENE 21:39:04 10° N
ERS-1 Rocket 3.9 21:30:05 10° SE 21:34:35 35° ENE 21:39:08 10° N
Cosmos 1470 Rocket 4.0 21:34:22 10° NNW 21:38:51 67° W 21:43:16 10° S
Cosmos 1943 Rocket 3.6 21:36:12 10° SE 21:40:04 19° E 21:43:54 10° ENE
Spot 2 Rocket 3.8 21:35:52 10° SE 21:40:45 54° ENE 21:45:41 10° N
ERBS 2.4 21:38:07 10° WNW 21:41:26 70° NNE 21:44:44 10° ESE
OBJECT-B 3.6 21:40:21 10° SW 21:42:31 17° W 21:44:43 10° NW
Meteor 1-10 Rocket 4.4 21:38:18 10° S 21:43:45 56° E 21:49:21 10° NNE
Cosmos 1536 3.5 21:41:12 10° N 21:45:02 39° ENE 21:48:43 10° SE
CZ-2C R/B 3.9 21:42:04 10° NNE 21:46:31 54° ESE 21:51:00 10° S
CARTOSAT-1 4.0 21:42:36 10° SE 21:46:45 48° ENE 21:50:55 10° N
Landsat 7 4.0 21:42:09 10° S 21:46:55 78° WSW 21:51:43 10° NNW
SPOT 5 3.7 21:42:38 10° SE 21:47:33 44° ENE 21:52:37 10° N
SPOT 3 Rocket 3.9 21:45:14 10° S 21:50:21 67° WSW 21:55:31 10° NNW
Cosmos 1271 Rocket 2.9 21:46:37 10° S 21:50:33 59° E 21:54:31 10° NNE
COSMOS 2406 4.4 21:45:45 10° NW 21:50:59 39° WSW 21:56:11 10° S
Cosmos 1680 Rocket 3.6 21:47:02 10° NNW 21:52:24 72° ENE 21:57:31 11° SSE
Cosmos 1933 Rocket 3.8 21:48:15 10° NNW 21:52:35 72° W 21:56:55 10° S
ISS -2.8 21:51:46 10° SSW 21:54:42 28° SSE 21:57:38 10° E
Cosmos 2278 Rocket 2.4 21:50:44 10° SSW 21:56:24 81° WNW 22:02:06 10° NNE
Cosmos 2084 Rocket 3.5 21:52:37 10° NW 21:56:53 85° NE 22:00:52 13° SE
Cosmos 1544 3.8 21:55:01 10° N 21:58:25 37° ENE 22:01:17 13° SE
SJ 16-02 1.4 21:54:35 10° SSW 21:59:02 86° WNW 22:03:30 10° NNE
Cosmos 2369 Rocket 3.8 21:58:46 11° SE 22:01:32 16° E 22:04:45 10° ENE
IGS 5A 4.4 21:59:22 10° S 22:03:20 45° W 22:07:21 10° NNW
Cosmos 1666 3.4 22:01:28 10° NNW 22:05:06 51° W 22:08:43 10° S
Cosmos 1733 Rocket 4.2 22:05:29 10° N 22:09:19 30° ENE 22:12:25 14° SE
RESURS DK-1 4.0 22:10:29 10° NNW 22:14:00 25° NE 22:17:31 10° E
ARIANE 5 R/B 2.6 22:10:14 12° SSE 22:14:17 88° WSW 22:18:40 10° NNW
Meteor 2-6 Rocket 4.5 22:09:10 10° SSW 22:14:37 71° WNW 22:20:16 10° N
Cosmos 1812 3.9 22:11:23 10° SSW 22:15:05 44° WNW 22:18:49 10° N
BREEZE-M DEB (TANK) 1.9 22:16:04 10° W 22:17:57 32° SSW 22:18:58 21° SE
Iridium 4 Rocket 3.9 22:13:59 10° S 22:19:53 84° W 22:25:49 10° N
USA 245 3.2 22:18:30 13° SSW 22:20:17 39° W 22:22:40 10° NNW
Cosmos 990 Rocket 4.0 22:19:56 10° SSW 22:25:07 67° ESE 22:30:22 10° NNE
Cosmos 1898 Rocket 3.6 22:22:56 10° S 22:28:09 59° ESE 22:33:25 10° NNE
ATLAS 2AS CENTAUR R/B 3.1 22:21:38 10° NW 22:28:53 59° SW 22:34:29 15° SSE
SL-24 R/B - RUBIN 2 4.4 22:25:01 10° NW 22:30:21 52° WSW 22:34:02 17° SSE
USA 215 4.0 22:24:05 10° ENE 22:30:27 57° N 22:36:50 10° W
Meteor 1-27 Rocket 3.8 22:25:52 10° S 22:31:45 82° E 22:37:43 10° NNE
Cosmos 44 4.0 22:26:41 10° NW 22:31:57 51° WSW 22:35:56 16° SSE
Cosmos 1818 3.7 22:29:15 10° NW 22:34:43 71° SW 22:38:46 18° SSE
Cosmos 2154 Rocket 4.2 22:28:47 10° NNW 22:35:07 75° W 22:40:59 12° S
Cosmos 1743 2.7 22:32:40 10° N 22:36:34 75° E 22:39:06 21° SSE
Cosmos 962 Rocket 4.5 22:33:49 10° N 22:39:58 76° ENE 22:44:46 17° SSE
Nadezhda 1 Rocket 4.0 22:36:35 10° S 22:42:53 85° WNW 22:49:07 10° N
BREEZE-M R/B 2.0 22:44:39 10° W 22:47:01 49° S 22:48:00 30° SE
H-2A R/B 3.6 22:45:40 10° NNE 22:49:48 55° E 22:52:23 21° S
Cosmos 44 Rocket 4.5 22:46:33 10° NW 22:51:32 42° NE 22:56:13 11° ESE
Terra 1.9 22:51:09 19° S 22:54:32 78° WSW 22:59:20 10° NNW
Cosmos 1461 3.2 22:51:06 10° SSW 22:55:41 54° SE 23:00:12 10° NE
Cosmos 1340 Rocket 3.5 22:53:35 10° NNW 22:57:33 50° W 23:00:21 18° SSW
Cosmos 1862 Rocket 3.8 22:57:49 24° SSE 23:00:07 50° E 23:04:19 10° NNE
Cosmos 2297 3.7 22:55:31 10° SSW 23:01:14 88° ESE 23:06:57 10° NNE
Cosmos 1900 4.4 22:56:16 10° SW 23:01:22 87° NW 23:06:26 10° NE
Cosmos 967 Rocket 4.4 22:55:46 10° SSW 23:02:02 82° SE 23:08:21 10° NE
Cosmos 2228 Rocket 4.2 22:57:53 10° SW 23:02:07 42° WNW 23:06:26 10° N
Okean 1 3.3 23:00:55 25° S 23:03:02 62° E 23:06:59 10° NNE
Resurs 01 Rocket 4.3 23:03:07 10° WSW 23:05:05 13° W 23:07:02 10° WNW
ATLAS CENTAUR R/B 2.6 23:10:14 20° ESE 23:10:14 20° ESE 23:12:42 10° ENE
Cosmos 2082 Rocket 4.2 23:08:53 10° WNW 23:12:36 18° W 23:16:20 10° SW
ERS-1 Rocket 3.9 23:09:26 15° SSW 23:13:20 41° W 23:18:06 10° NNW
Cosmos 2366 rocket 4.0 23:08:43 10° N 23:14:57 78° E 23:18:59 23° SSE
Cosmos 1515 3.7 23:13:58 24° SSW 23:16:09 80° W 23:19:59 10° N
ERBS 3.7 23:14:36 10° W 23:17:17 23° SW 23:17:42 22° SSW
Cosmos 2181 Rocket 3.9 23:16:13 21° S 23:20:28 74° E 23:26:35 10° NNE
Cosmos 1707 Rocket 4.1 23:18:52 15° SSW 23:22:25 57° WNW 23:26:49 10° N
Cosmos 1937 Rocket 3.6 23:17:29 10° SSW 23:22:38 74° WNW 23:27:51 10° NNE
Cosmos 1943 Rocket 2.2 23:17:28 10° SSW 23:23:07 84° WNW 23:28:45 10° NNE
SPOT 5 4.3 23:21:39 14° SSW 23:25:42 35° W 23:30:36 10° NNW
ISS -3.9 23:27:52 10° WSW 23:31:14 78° SSE 23:34:36 10° E
Cosmos 1867 3.8 23:28:40 23° S 23:31:53 51° ESE 23:37:12 10° NE
Cosmos 1656 Rocket 4.0 23:30:07 27° SSE 23:32:38 45° ESE 23:37:56 10° NE
Spot 4 4.1 23:30:35 27° SE 23:33:06 61° ENE 23:37:54 10° N
Cosmos 1238 Rocket 4.1 23:28:58 10° NNW 23:34:45 56° W 23:37:52 22° SSW
DNEPR-1 R/B 4.2 23:29:09 10° SW 23:34:51 73° NW 23:39:37 10° NE
SJ 16-02 4.3 23:35:36 10° W 23:38:20 16° NW 23:41:04 10° N
Cosmos 1975 3.0 23:35:35 10° NNW 23:39:33 66° W 23:41:09 34° SSW
Cosmos 1048 Rocket 4.0 23:34:46 10° NNW 23:40:07 87° WSW 23:42:47 30° SSE
Cosmos 2098 4.1 23:41:20 10° N 23:44:19 73° ENE 23:44:52 55° SE
Cosmos 2218 Rocket 4.2 23:38:24 10° NNW 23:44:39 67° W 23:48:39 24° S
Cosmos 2369 Rocket 2.1 23:40:29 19° SSW 23:44:39 81° ESE 23:50:22 10° NNE
Cosmos 1733 Rocket 4.3 23:43:14 10° NNW 23:47:08 33° W 23:49:30 19° SW
ALOS 2 3.1 23:47:43 29° SE 23:49:38 49° ENE 23:53:54 10° N
Meteor 1-18 Rocket 4.3 23:48:19 21° SSW 23:52:08 74° WNW 23:57:44 10° N
RESURS DK-1 2.7 23:48:13 10° NW 23:52:18 53° WSW 23:53:36 37° S
SL-27 R/B 2.2 23:49:02 10° NNW 23:52:23 87° WSW 23:53:01 56° SSE
Okean 3 4.4 23:51:44 29° ESE 23:52:51 34° E 23:56:40 10° NNE
Lacrosse 5 3.1 23:54:17 24° ESE 23:54:17 24° ESE 23:58:03 10° ENE
